Location: Kerberlivit
(48.2787°N, 4.5413°W)
Time: 18:58:25
(UTC+00:00)

CZ-4B DEB - Pass Details

Date: 18 February 2020
Orbit: 840 x 862 km, 99.1° (Epoch: 05 April)

Event Time Altitude Azimuth Distance (km) Brightness Sun altitude
Rises 06:24:01 0° 11° (NNE) 3,428 7.4 -10.1°
Reaches altitude 10° 06:26:26 10° 8° (N) 2,484 6.7 -9.7°
Maximum altitude 06:31:47 56° 292° (WNW) 1,006 4.3 -8.8°
Drops below altitude 10° 06:37:05 10° 215° (SW) 2,456 6.4 -8.0°
Sets 06:39:28 0° 211° (SSW) 3,385 7.1 -7.6°
